Weather in Rechitsa

Russia / Bryansk Oblast     52°44′50″N   34°03′41″E
temp.,
°C
wind,
m/s
gust,
m/s
humid.,
%
clouds,
%
prec.,
mm/h
press.,
hPa
HPBL,
m
3 march, wed
wed300:000nnw5138686 0.1 1018702
03:00−1nw6138769 0.1 1019528
06:00−2nnw512900 0.0 1020448
09:00−2nw511900 0.0 1023508
12:00+1nw58860 0.0 1023590
15:00+2wnw58812 0.0 1022787
18:00+1w5108275 0.0 1020648
21:00−1w499163 0.0 1020258
4 march, thu
thu400:00−1wsw510880 0.0 1017278
03:00−1wsw5118727 0.0 1016332
06:00−2sw6128731 0.0 1013351
09:00−1sw7148315 0.0 1011501
12:00+2wsw7118545 0.0 1007654
15:00+5wsw6117766 0.0 1005869
18:00+3wsw5128898 0.0 1003437
21:00+2w5119899 0.5 1002475
5 march, fri
fri500:00+1wnw5998100 0.3 1003446
03:00−1wnw41093100 0.5 1004475
06:00−1nnw5788100 0.1 1007503
09:00−2n478299 0.1 1009567
12:000nnw346686 0.0 1010926
15:00+1nnw345993 0.1 10111222
18:00−1n357499 0.1 1012258
21:00−3n257994 0.1 1014280
6 march, sat
sat600:00−3nnw248060 0.0 1015249
03:00−3wnw117830 0.0 101679
06:00−4sw357845 0.0 1016277
09:00−5wnw696953 0.4 1017875
12:00−4nw71073100 0.3 10181072
15:00−3nnw81061100 0.4 10191363
18:00−4nnw585473 0.0 10201436
21:00−5wnw376650 0.0 1022693
7 march, sun
sun700:00−6wsw48690 0.0 1021372
03:00−6wsw511660 0.0 1019438
06:00−5sw7156652 0.0 1016681
09:00−3wsw10166376 0.0 10131006
12:00−1wsw111667100 0.0 10091214
15:00+1wsw111859100 0.0 10061483
18:00+1wsw101864100 0.0 10041323
21:00−1w81391100 0.4 1005853